Tracking 31013 objects as of 11-Jul-2025
HD Live streaming from Space Station
objects crossing your sky now

BREEZE-M DEB (TANK)

Track BREEZE-M DEB (TANK) now!
10-day predictions


NORAD ID: 39524
Int'l Code: 2014-007C
Perigee: 298.3 km
Apogee: 19,877.3 km
Inclination: 49.3 °
Period: 350.2 minutes
Semi major axis: 16458 km
RCS: Unknown
Launch date: February 14, 2014
Source: Commonwealth of Independent States (former USSR) (CIS)
Launch site: TYURATAM MISSILE AND SPACE COMPLEX (TTMTR)

Note: This is SATELLITE DEBRIS
Your satellite tracking list
Your tracking list is empty




NASA's NSSDC Master Catalog

Two Line Element Set (TLE):
1 39524U 14007C   25191.06582917  .00005218  00000-0  12188-2 0  9999
2 39524  49.3211 144.3297 5947891  26.6021 354.3228  4.11154913158421
Source of the keplerian elements: AFSPC